Location: *
(37.5724°S, 58.0067°E)
Time: 11:43:15
(UTC+00:00)

Lacrosse 5 - Pass Details

Date: 25 January 2021
Orbit: 715 x 724 km, 57.0° (Epoch: 22 February)

Event Time Altitude Azimuth Distance (km) Brightness Sun altitude
Exits shadow 17:11:07 20° 96° (E) 1,628 3.3 -18.2°
Drops below altitude 10° 17:13:17 10° 116° (ESE) 2,233 4.2 -18.5°
Sets 17:15:58 0° 127° (SE) 3,163 5.1 -18.9°
